Latest Weather Observations for Frankston

IDV60801

Issued at 7:35 pm EST Wednesday 23 July 2014 (issued every 30 minutes, with the page automatically refreshed every 10 minutes)

About weather observations | Map of weather stations | Latest weather observations for VIC | Other Formats
Station Details ID: 086371 Name: FRANKSTON AWS Lat: -38.15 Lon: 145.12 Height: 6.0 m
Data from the previous 72 hours. | See also: Recent months at Frankston
Date/Time
EST
Temp
°C
App
Temp
°C
Dew
Point
Rel
Hum
%
Delta-T
°C
Wind Press
QNH
hPa
Press
MSL
hPa
Rain
since 9 am
mm
Dir
 
Spd
km/h
Gust
km/h
Spd
kts
Gust
kts
23/07:30pm 10.0 7.4 4.0 66 2.6 ESE 7 11 4 6 - - -
23/07:00pm 10.3 7.4 4.7 68 2.5 SE 9 11 5 6 - - -
23/06:30pm 9.4 8.2 4.8 73 2.1 CALM 0 2 0 1 - - -
23/06:00pm 10.4 9.2 4.8 68 2.5 SSW 0 0 0 0 - - -
23/05:30pm 10.6 9.0 4.5 66 2.7 E 2 6 1 3 - - -
23/05:00pm 11.1 8.8 4.8 65 2.9 ESE 6 7 3 4 - - -
23/04:30pm 11.5 9.1 4.5 62 3.2 ESE 6 9 3 5 - - -
23/04:00pm 11.9 9.3 4.4 60 3.4 E 7 13 4 7 - - -
23/03:30pm 11.9 9.1 5.3 64 3.0 E 9 13 5 7 - - -
23/03:00pm 12.1 9.9 5.5 64 3.1 E 6 11 3 6 - - -
23/02:30pm 11.7 10.0 6.0 68 2.7 E 4 7 2 4 - - -
23/02:00pm 11.7 10.2 5.1 64 3.0 E 2 7 1 4 - - -
23/01:30pm 9.9 9.0 5.9 76 1.8 CALM 0 0 0 0 - - -
23/01:00pm 9.5 8.6 6.2 80 1.5 CALM 0 0 0 0 - - -
23/12:30pm 8.6 7.6 5.7 82 1.3 CALM 0 0 0 0 - - -
23/12:00pm 8.0 7.0 5.5 84 1.1 CALM 0 0 0 0 - - -
23/11:30am 6.7 5.1 4.7 87 0.9 NW 2 4 1 2 - - -
23/11:00am 6.5 4.2 4.8 89 0.7 N 6 7 3 4 - - -
23/10:30am 6.0 3.7 4.6 91 0.6 NNE 6 7 3 4 - - -
23/10:00am 6.2 4.7 4.8 91 0.6 E 2 4 1 2 - - -
23/09:30am 6.4 4.6 5.2 92 0.5 ESE 4 6 2 3 - - -
23/09:00am 6.5 4.3 5.1 91 0.6 ESE 6 7 3 4 - - -
23/08:30am 6.6 4.7 5.1 90 0.7 ENE 4 9 2 5 - - -
23/08:00am 6.6 4.8 5.2 91 0.6 E 4 7 2 4 - - -
23/07:30am 6.5 5.0 5.1 91 0.6 NNE 2 6 1 3 - - -
23/07:00am 6.6 4.8 5.2 91 0.6 NE 4 7 2 4 - - -
23/06:30am 7.0 5.6 5.6 91 0.6 NE 2 6 1 3 - - -
23/06:00am 7.1 6.2 6.0 93 0.5 CALM 0 2 0 1 - - -
23/05:30am 7.0 5.3 5.9 93 0.5 ENE 4 6 2 3 - - -
23/05:00am 7.2 5.9 6.0 92 0.5 ENE 2 4 1 2 - - -
23/04:30am 7.4 5.4 6.2 92 0.5 NNE 6 7 3 4 - - -
23/04:00am 7.5 6.3 6.3 92 0.5 N 2 7 1 4 - - -
23/03:30am 7.2 6.0 6.3 94 0.4 E 2 4 1 2 - - -
23/03:00am 7.2 5.6 6.3 94 0.4 E 4 4 2 2 - - -
23/02:30am 7.1 5.8 6.2 94 0.4 ENE 2 2 1 1 - - -
23/02:00am 6.9 5.2 6.0 94 0.4 E 4 4 2 2 - - -
23/01:30am 6.8 5.1 6.1 95 0.3 E 4 6 2 3 - - -
23/01:00am 6.5 4.8 5.8 95 0.3 SE 4 6 2 3 - - -
23/12:30am 6.3 4.9 5.6 95 0.3 E 2 4 1 2 - - -
23/12:00am 6.1 4.3 5.4 95 0.3 ESE 4 6 2 3 - - -
 
Date/Time
EST
Temp
°C
App
Temp
°C
Dew
Point
Rel
Hum
%
Delta-T
°C
Wind Press
QNH
hPa
Press
MSL
hPa
Rain
since 9 am
mm
Dir
 
Spd
km/h
Gust
km/h
Spd
kts
Gust
kts
22/11:30pm 5.9 3.7 5.2 95 0.3 E 6 7 3 4 - - -
22/11:00pm 5.7 3.8 5.0 95 0.3 E 4 6 2 3 - - -
22/10:30pm 6.2 5.1 5.3 94 0.4 CALM 0 0 0 0 - - -
22/10:00pm 6.4 5.4 5.5 94 0.4 CALM 0 0 0 0 - - -
22/09:30pm 6.1 5.0 5.2 94 0.4 CALM 0 0 0 0 - - -
22/09:00pm 6.7 5.7 5.8 94 0.4 CALM 0 0 0 0 - - -
22/08:30pm 6.4 5.4 5.5 94 0.4 CALM 0 0 0 0 - - -
22/08:00pm 6.5 5.5 5.6 94 0.4 CALM 0 0 0 0 - - -
22/07:30pm 6.4 5.4 5.5 94 0.4 CALM 0 0 0 0 - - -
22/07:00pm 7.6 6.9 6.9 95 0.3 CALM 0 0 0 0 - - -
22/06:30pm 7.5 6.8 6.9 96 0.3 CALM 0 0 0 0 - - -
22/06:00pm 7.9 7.4 7.8 99 0.0 CALM 0 0 0 0 - - -
22/05:30pm 8.0 7.5 7.9 99 0.0 CALM 0 0 0 0 - - -
22/05:00pm 7.0 6.3 6.9 99 0.0 CALM 0 0 0 0 - - -
22/04:30pm 6.2 5.3 6.1 99 0.0 CALM 0 0 0 0 - - -
22/04:00pm 6.3 5.4 6.2 99 0.0 CALM 0 0 0 0 - - -
22/03:30pm 6.5 5.7 6.4 99 0.0 CALM 0 0 0 0 - - -
22/03:00pm 6.5 5.7 6.4 99 0.0 CALM 0 0 0 0 - - -
22/02:30pm 6.5 5.7 6.4 99 0.0 CALM 0 0 0 0 - - -
22/02:00pm 6.3 5.4 6.2 99 0.0 CALM 0 0 0 0 - - -
22/01:30pm 6.3 5.4 6.2 99 0.0 CALM 0 4 0 2 - - -
22/01:00pm 6.0 4.7 5.9 99 0.0 NNW 2 4 1 2 - - -
22/12:30pm 5.7 3.9 5.6 99 0.0 WNW 4 7 2 4 - - -
22/12:00pm 5.7 4.3 5.6 99 0.0 NNW 2 4 1 2 - - -
22/11:30am 5.3 4.2 5.2 99 0.0 CALM 0 6 0 3 - - -
22/11:00am 5.1 4.0 5.0 99 0.0 CALM 0 0 0 0 - - -
22/10:30am 5.3 3.8 5.2 99 0.0 NE 2 6 1 3 - - -
22/10:00am 4.7 3.5 4.6 99 0.0 CALM 0 6 0 3 - - -
22/09:30am 4.4 2.8 4.3 99 0.0 SE 2 4 1 2 - - -
22/09:00am 4.0 2.2 3.7 98 0.1 E 2 6 1 3 - - -
22/08:30am 3.6 1.8 3.3 98 0.1 NE 2 6 1 3 - - -
22/08:00am 3.5 2.0 3.2 98 0.1 CALM 0 2 0 1 - - -
22/07:30am 3.3 1.0 3.0 98 0.1 E 4 4 2 2 - - -
22/07:00am 3.5 1.3 3.1 97 0.2 E 4 7 2 4 - - -
22/06:30am 3.2 0.5 2.8 97 0.2 E 6 7 3 4 - - -
22/06:00am 3.8 2.0 3.4 97 0.2 ENE 2 4 1 2 - - -
22/05:30am 3.8 1.6 3.4 97 0.2 E 4 6 2 3 - - -
22/05:00am 4.0 1.8 3.4 96 0.2 ENE 4 7 2 4 - - -
22/04:30am 4.5 2.0 3.9 96 0.3 E 6 9 3 5 - - -
22/04:00am 5.0 2.4 4.4 96 0.3 E 7 9 4 5 - - -
22/03:30am 5.0 3.4 4.4 96 0.3 ESE 2 4 1 2 - - -
22/03:00am 4.9 2.3 4.2 95 0.3 SE 7 9 4 5 - - -
22/02:30am 5.1 3.8 4.2 94 0.4 CALM 0 0 0 0 - - -
22/02:00am 5.8 4.7 4.9 94 0.4 CALM 0 0 0 0 - - -
22/01:30am 5.9 4.8 4.9 93 0.4 CALM 0 0 0 0 - - -
22/01:00am 6.5 5.4 5.3 92 0.5 CALM 0 0 0 0 - - -
22/12:30am 7.3 6.4 5.9 91 0.6 CALM 0 0 0 0 - - -
22/12:00am 7.9 7.1 6.5 91 0.6 CALM 0 0 0 0 - - -
 
Date/Time
EST
Temp
°C
App
Temp
°C
Dew
Point
Rel
Hum
%
Delta-T
°C
Wind Press
QNH
hPa
Press
MSL
hPa
Rain
since 9 am
mm
Dir
 
Spd
km/h
Gust
km/h
Spd
kts
Gust
kts
21/11:30pm 7.7 6.1 6.3 91 0.6 SSE 4 7 2 4 - - -
21/11:00pm 8.1 6.2 6.7 91 0.6 SSE 6 9 3 5 - - -
21/10:30pm 8.1 7.0 6.7 91 0.6 SSE 2 6 1 3 - - -
21/10:00pm 7.2 5.8 5.7 90 0.7 E 2 4 1 2 - - -
21/09:30pm 8.1 6.8 6.1 87 0.9 NE 2 2 1 1 - - -
21/09:00pm 8.4 7.5 6.2 86 1.0 CALM 0 0 0 0 - - -
21/08:30pm 8.7 7.0 6.0 83 1.2 ESE 4 4 2 2 - - -
21/08:00pm 9.0 7.7 5.9 81 1.4 ESE 2 6 1 3 - - -
21/07:30pm 9.3 8.1 6.4 82 1.3 SE 2 4 1 2 - - -
21/07:00pm 9.6 8.2 7.4 86 1.0 SE 4 6 2 3 - - -
21/06:30pm 10.0 9.1 7.8 86 1.1 SE 2 4 1 2 - - -
21/06:00pm 10.4 9.2 8.0 85 1.2 SE 4 6 2 3 - - -
21/05:30pm 10.6 9.8 8.2 85 1.2 SW 2 4 1 2 - - -
21/05:00pm 10.3 8.6 7.7 84 1.2 WSW 6 7 3 4 - - -
21/04:30pm 10.4 8.7 7.6 83 1.3 WSW 6 7 3 4 - - -
21/04:00pm 10.1 8.1 7.2 82 1.4 W 7 7 4 4 - - -
21/03:30pm 9.9 7.9 7.0 82 1.4 WSW 7 7 4 4 - - -
21/03:00pm 9.5 7.5 7.3 86 1.0 WSW 7 9 4 5 - - -
21/02:30pm 9.3 7.3 7.1 86 1.0 WSW 7 9 4 5 - - -
21/02:00pm 9.2 7.2 7.0 86 1.0 WSW 7 9 4 5 - - -
21/01:30pm 8.9 6.8 6.7 86 1.0 W 7 7 4 4 - - -
21/01:00pm 8.7 6.8 6.7 87 0.9 WSW 6 7 3 4 - - -
21/12:30pm 8.5 6.6 6.6 88 0.9 W 6 6 3 3 - - -
21/12:00pm 8.3 7.5 6.6 89 0.8 CALM 0 2 0 1 - - -
21/11:30am 8.0 7.3 6.8 92 0.6 CALM 0 0 0 0 - - -
21/11:00am 7.9 6.9 7.3 96 0.3 NNW 2 4 1 2 - - -
21/10:30am 7.6 6.2 7.3 98 0.1 N 4 6 2 3 - - -
21/10:00am 7.5 6.1 7.2 98 0.1 NNE 4 6 2 3 - - -
21/09:30am 7.3 6.6 7.0 98 0.1 CALM 0 0 0 0 - - -
21/09:00am 6.9 5.7 6.6 98 0.1 NNE 2 6 1 3 - - -
21/08:30am 6.9 5.4 6.6 98 0.1 ESE 4 6 2 3 - - -
21/08:00am 6.7 5.1 6.3 97 0.2 ENE 4 6 2 3 - - -
21/07:30am 7.0 5.5 6.6 97 0.2 ESE 4 6 2 3 - - -
21/07:00am 6.8 5.6 6.4 97 0.2 ENE 2 4 1 2 - - -
21/06:30am 6.7 5.0 6.1 96 0.3 E 4 4 2 2 - - -
21/06:00am 6.7 5.4 6.1 96 0.3 ENE 2 4 1 2 - - -
21/05:30am 6.6 4.9 6.0 96 0.3 ESE 4 6 2 3 - - -
21/05:00am 6.4 4.3 5.8 96 0.3 ESE 6 7 3 4 - - -
21/04:30am 6.2 4.0 5.5 95 0.3 E 6 7 3 4 - - -
21/04:00am 6.0 4.2 5.3 95 0.3 E 4 7 2 4 - - -
21/03:30am 6.0 3.8 5.1 94 0.4 ESE 6 7 3 4 - - -
21/03:00am 6.3 4.5 5.3 93 0.4 E 4 4 2 2 - - -
21/02:30am 6.9 5.9 5.8 93 0.5 CALM 0 4 0 2 - - -
21/02:00am 7.0 6.0 5.8 92 0.5 CALM 0 0 0 0 - - -
21/01:30am 6.4 5.3 5.2 92 0.5 CALM 0 2 0 1 - - -
21/01:00am 7.0 5.2 5.6 91 0.6 E 4 9 2 5 - - -
21/12:30am 7.3 6.3 5.8 90 0.7 CALM 0 0 0 0 - - -
21/12:00am 7.2 6.2 5.7 90 0.7 CALM 0 0 0 0 - - -
 
Date/Time
EST
Temp
°C
App
Temp
°C
Dew
Point
Rel
Hum
%
Delta-T
°C
Wind Press
QNH
hPa
Press
MSL
hPa
Rain
since 9 am
mm
Dir
 
Spd
km/h
Gust
km/h
Spd
kts
Gust
kts
20/11:30pm 8.3 7.5 6.6 89 0.8 CALM 0 0 0 0 - - -
20/11:00pm 8.7 8.0 7.0 89 0.8 CALM 0 0 0 0 - - -
20/10:30pm 8.1 7.3 6.4 89 0.8 CALM 0 0 0 0 - - -
20/10:00pm 8.3 7.5 6.6 89 0.8 CALM 0 0 0 0 - - -
20/09:30pm 8.4 7.6 6.7 89 0.8 CALM 0 0 0 0 - - -
20/09:00pm 8.3 7.5 6.4 88 0.9 CALM 0 0 0 0 - - -
20/08:30pm 8.9 8.1 6.7 86 1.0 CALM 0 0 0 0 - - -
20/08:00pm 9.8 9.2 7.6 86 1.0 CALM 0 0 0 0 - - -

Other Formats:

Comma delimited format used in spreadsheet applications
http://www.bom.gov.au/fwo/IDV60801/IDV60801.94871.axf

JavaScript Object Notation format (JSON) in row-major order
http://www.bom.gov.au/fwo/IDV60801/IDV60801.94871.json